SALSAT
1 46495U 20068K   25223.48774807  .00007370  00000-0  31144-3 0  9996
2 46495  97.8653 204.4726 0009438 309.6804  50.3599 15.23526805268102
TUBIN
1 48900U 21059X   25223.78352936  .00053616  00000-0  52655-3 0  9992
2 48900  97.6774  38.4075 0002420   2.0082 358.1187 15.65888212229912
LEDSAT
1 49069U 21073D   25223.73856701  .00107115  00000-0  87537-3 0  9990
2 49069  97.3839 308.3029 0008900 201.2847 158.8046 15.70187319221318
CUTE
1 49263U 21088D   25223.63329336  .00033885  00000-0  60998-3 0  9994
2 49263  97.4482 301.8246 0006590  17.9612 342.1871 15.49727087214182
TeikyoSat 4
1 49396U 21102B   25223.59860575  .00001945  00000-0  13070-3 0  9999
2 49396  97.4068 259.7477 0010812 278.6021  81.3982 15.07869807206040
Z-Sat
1 49399U 21102E   25223.84250071  .00004140  00000-0  22536-3 0  9991
2 49399  97.3758 263.4782 0016427 241.5488 118.4090 15.14866568206550
KOSEN 1
1 49402U 21102H   25223.84232957  .00006623  00000-0  30073-3 0  9992
2 49402  97.3657 267.3814 0014845 211.6619 148.3725 15.21019092206904
HO-113
1 50466U 21131B   25223.81588033  .00000478  00000-0  16281-3 0  9999
2 50466  98.5100 312.8601 0003176 318.3367  41.7580 14.40876670190553
SNUGLITE 2
1 52899U 22065F   25223.87892132  .00001047  00000-0  21198-3 0  9998
2 52899  98.1771   5.2684 0006324 275.6579  84.3901 14.63339627165741
UmKA 1 (RS40S)
1 57172U 23091G   25223.85441843  .00005768  00000-0  30318-3 0  9992
2 57172  97.5530 278.9158 0015736 114.1897 246.0982 15.15967870117061
CubeBel-2 (EU11S)
1 57175U 23091K   25223.84283091  .00010131  00000-0  46787-3 0  9990
2 57175  97.5529 280.4522 0013371 119.9848 240.2716 15.20323068117160
VERONIKA
1 58261U 23174F   25223.78677423  .01801043  29514-2  15294-2 0  9990
2 58261  97.4046 315.0042 0013208 261.6625  98.3163 16.14136729 98682
ENSO
1 58470U 23185J   25223.85703949  .00081998  00000-0  89784-3 0  9996
2 58470  97.3678 301.2959 0006900 200.9333 159.1644 15.62990103 94896
EIRSAT-1
1 58472U 23185L   25223.85242716  .00339947  00000-0  12643-2 0  9997
2 58472  97.3596 304.7226 0007741 226.1520 133.9112 15.87169151 95129
SONATE-2
1 59112U 24043Q   25223.85587174  .00018360  00000-0  49853-3 0  9990
2 59112  97.5213 356.4104 0009712 245.1909 114.8325 15.37597883 80052
MO-122
1 60209U 24125G   25223.85305963  .00019474  00000-0  51852-3 0  9993
2 60209  97.2724  74.8276 0016146 269.0937  90.8458 15.38100062 61678
GRBBeta
1 60237U 24128C   25223.54525209  .00004541  00000-0  33941-3 0  9998
2 60237  61.9895 219.9402 0055821  70.9140 289.7984 15.03079565 59661
Curium One
1 60242U 24128H   25223.47146898  .00007862  00000-0  53396-3 0  9994
2 60242  61.9792 217.5166 0055865  67.2956 293.4029 15.05880032 59704
ROBUSTA-3A
1 60243U 24128J   25223.69337119  .00006020  00000-0  41866-3 0  9991
2 60243  61.9864 217.7824 0055065  64.9209 295.7584 15.05368904 59727
CatSat
1 60246U 24125J   25223.56917979  .00017023  00000-0  54347-3 0  9998
2 60246  97.2535  73.0199 0040113 227.9009 131.8820 15.31748215 59620
HYPERVIEW-1G (RS66S)
1 61772U 24199AP  25223.90913208  .00024512  00000-0  65896-3 0  9995
2 61772  97.3435  92.7045 0011460 333.0464  27.0184 15.37825497 86689
AO-123
1 61781U 24199AY  25223.87658836  .00007059  00000-0  25173-3 0  9995
2 61781  97.3456  90.8218 0014762 339.8845  20.1811 15.29103361 86555
ZIMSAT 2
1 61783U 24199BA  25223.90608326  .00044807  00000-0  94565-3 0  9993
2 61783  97.3401  93.8757 0010035 328.0387  32.0252 15.45025233 89911
HADES-R (SO-124)
1 62690U 25009CK  25223.48380487  .00043328  00000-0  13460-2 0  9991
2 62690  97.4058 304.2062 0003160 204.8267 155.2823 15.33221815 31779
HYDRA-T
1 62692U 25009CM  25222.73898693  .00043038  00000-0  13242-2 0  9999
2 62692  97.4067 303.5222 0003042 205.1391 154.9704 15.33530476 31660
JINJUSat 1B
1 63210U 25052A   25223.67739660  .00010813  00000-0  47811-3 0  9991
2 63210  97.4325 117.0251 0006334  99.7224 260.4728 15.21854974 22841
NUSHSAT 1
1 63211U 25052B   25223.46306364  .00013983  00000-0  61063-3 0  9996
2 63211  97.4317 116.8332 0006275 103.8435 256.3500 15.22216109 22817
TEVEL2-4
1 63213U 25052D   25223.62148304  .00011403  00000-0  50394-3 0  9994
2 63213  97.4234 116.7670 0005415 113.8366 246.3438 15.21863627 22833
TEVEL2-5
1 63214U 25052E   25223.62305376  .00011290  00000-0  49942-3 0  9990
2 63214  97.4235 116.7654 0005369 113.6934 246.4866 15.21832627 22836
TEVEL2-6
1 63215U 25052F   25223.69260693  .00011472  00000-0  50797-3 0  9992
2 63215  97.4235 116.8274 0005406 114.2452 245.9349 15.21795990 22842
TEVEL2-1
1 63217U 25052H   25223.44997234  .00013072  00000-0  58239-3 0  9992
2 63217  97.4213 116.4925 0005275 124.7650 235.4083 15.21553638 22805
TEVEL2-3
1 63218U 25052J   25223.45018199  .00013068  00000-0  58210-3 0  9992
2 63218  97.4214 116.4940 0005319 125.0632 235.1104 15.21557772 22801
TEVEL2-2
1 63219U 25052K   25223.64788096  .00012220  00000-0  54469-3 0  9995
2 63219  97.4215 116.6874 0005351 124.5994 235.5747 15.21552896 22834
TEVEL2-9
1 63237U 25052AD  25223.50086750  .00011091  00000-0  51286-3 0  9997
2 63237  97.4276 116.3983 0009224 143.6980 216.4883 15.20289413 22794
TEVEL2-7
1 63238U 25052AE  25223.70345000  .00011094  00000-0  51406-3 0  9993
2 63238  97.4276 116.5895 0009299 143.3487 216.8386 15.20218246 22822
TEVEL2-8
1 63239U 25052AF  25223.44346921  .00012055  00000-0  55881-3 0  9997
2 63239  97.4282 116.3241 0009254 144.5711 215.6140 15.20181622 22784
HYDRA-W
1 63490U 25052BL  25222.96293131  .00030670  00000-0  11842-2 0  9997
2 63490  97.4223 116.5558 0013032 143.3821 216.8311 15.26137702 22766
HADES-ICM (SO-125)
1 63492U 25052BN  25222.67079142  .00027746  00000-0  10926-2 0  9993
2 63492  97.4231 116.1945 0012981 148.6067 211.5949 15.25503295 22712
